Location: Putah Creek Observatory
(38.7021°N, 122.3865°W)
Time: 21:00:39
(UTC-07:00)

ISS - Pass Details

Date: 23 March 2019
Orbit: 408 x 410 km, 51.6° (Epoch: 22 April)

Event Time Altitude Azimuth Distance (km) Brightness Sun altitude
Rises 21:34:19 0° 276° (W) 2,332 1.2 -25.4°
Reaches altitude 10° 21:37:02 10° 300° (WNW) 1,472 0.0 -25.9°
Maximum altitude 21:39:05 15° 339° (NNW) 1,188 -1.0 -26.2°
Enters shadow 21:39:21 15° 345° (NNW) 1,194 -1.0 -26.3°
